| time (UTC) | temp C | wind direction | speed KPH | gust KPH | rain 1hr cm | rain 24hr cm | rain mn cm | humidity % | barometer mb |
| 20260508064504 | 8 | 291 | 3.2 | 6.4 | 0.00 | 0.18 | 0.00 | 86 | 1013.1 |
| 20260508063604 | 8 | 276 | 3.2 | 6.4 | 0.00 | 0.18 | 0.00 | 87 | 1012.8 |
| 20260508062704 | 8 | 289 | 3.2 | 6.4 | 0.00 | 0.28 | 0.00 | 87 | 1012.8 |
| 20260508061804 | 8 | 293 | 3.2 | 6.4 | 0.00 | 0.33 | 0.00 | 87 | 1012.7 |
| 20260508060904 | 8 | 293 | 3.2 | 11.3 | 0.00 | 0.33 | 0.00 | 88 | 1012.7 |
| 20260508060004 | 8 | 301 | 4.8 | 11.3 | 0.00 | 0.33 | 0.00 | 88 | 1012.4 |
| 20260508055404 | 8 | 300 | 3.2 | 9.7 | 0.00 | 0.33 | 0.00 | 88 | 1012.5 |
| 20260508054503 | 8 | 292 | 1.6 | 6.4 | 0.00 | 0.33 | 0.00 | 88 | 1012.5 |
| 20260508053604 | 7 | 294 | 3.2 | 6.4 | 0.00 | 0.33 | 0.00 | 88 | 1012.2 |
| 20260508052704 | 7 | 276 | 3.2 | 6.4 | 0.00 | 0.33 | 0.00 | 88 | 1012.5 |
| 20260508051803 | 7 | 290 | 3.2 | 6.4 | 0.00 | 0.33 | 0.00 | 89 | 1012.2 |
| 20260508051118 | 7 | 279 | 1.6 | 6.4 | 0.00 | 0.33 | 0.00 | 89 | 1012.2 |
| 20260508050003 | 7 | 283 | 1.6 | 6.4 | 0.00 | 0.38 | 0.00 | 89 | 1012.1 |
| 20260508045403 | 7 | 289 | 1.6 | 4.8 | 0.00 | 0.41 | 0.00 | 89 | 1012.2 |
| 20260508044717 | 7 | 302 | 1.6 | 4.8 | 0.00 | 0.46 | 0.00 | 89 | 1012.2 |
| 20260508043818 | 8 | 286 | 1.6 | 4.8 | 0.00 | 0.48 | 0.00 | 88 | 1012.0 |
| 20260508042704 | 8 | 272 | 3.2 | 6.4 | 0.00 | 0.48 | 0.00 | 88 | 1011.9 |
| 20260508041804 | 8 | 275 | 3.2 | 6.4 | 0.00 | 0.48 | 0.00 | 88 | 1012.0 |
| 20260508040903 | 8 | 263 | 3.2 | 6.4 | 0.00 | 0.48 | 0.00 | 89 | 1012.0 |
| 20260508040003 | 8 | 261 | 3.2 | 6.4 | 0.00 | 0.48 | 0.00 | 89 | 1012.0 |
| 20260508035404 | 8 | 267 | 1.6 | 6.4 | 0.00 | 0.48 | 0.00 | 89 | 1011.8 |
| 20260508034718 | 8 | 263 | 1.6 | 6.4 | 0.00 | 0.48 | 0.00 | 89 | 1011.8 |
| 20260508033818 | 8 | 254 | 3.2 | 9.7 | 0.00 | 0.48 | 0.00 | 89 | 1011.5 |
| 20260508032703 | 8 | 238 | 3.2 | 6.4 | 0.00 | 0.53 | 0.00 | 89 | 1011.7 |
| 20260508031803 | 8 | 210 | 1.6 | 6.4 | 0.00 | 0.58 | 0.00 | 89 | 1011.9 |
| 20260508030903 | 8 | 207 | 3.2 | 6.4 | 0.00 | 0.58 | 0.00 | 90 | 1011.9 |
| 20260508030003 | 8 | 198 | 1.6 | 4.8 | 0.00 | 0.61 | 0.00 | 90 | 1011.7 |
| 20260508025403 | 8 | 201 | 1.6 | 4.8 | 0.00 | 0.64 | 0.00 | 90 | 1011.8 |
| 20260508024503 | 8 | 186 | 1.6 | 3.2 | 0.00 | 0.66 | 0.00 | 90 | 1011.7 |
| 20260508023603 | 8 | 193 | 1.6 | 3.2 | 0.00 | 0.66 | 0.00 | 90 | 1011.8 |
| 20260508022703 | 8 | 200 | 1.6 | 4.8 | 0.00 | 0.66 | 0.00 | 90 | 1011.7 |
| 20260508021804 | 8 | 196 | 1.6 | 4.8 | 0.00 | 0.66 | 0.00 | 90 | 1011.6 |
| 20260508020903 | 8 | 203 | 1.6 | 4.8 | 0.00 | 0.66 | 0.00 | 90 | 1011.6 |
| 20260508020003 | 8 | 203 | 1.6 | 4.8 | 0.00 | 0.66 | 0.00 | 90 | 1011.4 |
| 20260508015403 | 8 | 200 | 1.6 | 4.8 | 0.00 | 0.66 | 0.00 | 90 | 1011.3 |
| 20260508014504 | 8 | 204 | 1.6 | 6.4 | 0.00 | 0.66 | 0.00 | 90 | 1011.2 |
| 20260508013603 | 8 | 189 | 1.6 | 3.2 | 0.00 | 0.66 | 0.00 | 90 | 1011.4 |
| 20260508012703 | 8 | 194 | 1.6 | 6.4 | 0.00 | 0.66 | 0.00 | 90 | 1011.3 |
| 20260508011803 | 8 | 190 | 1.6 | 4.8 | 0.00 | 0.66 | 0.00 | 90 | 1011.3 |
| 20260508010903 | 8 | 194 | 1.6 | 4.8 | 0.00 | 0.66 | 0.00 | 90 | 1011.3 |
| 20260508010003 | 8 | 186 | 0.0 | 3.2 | 0.00 | 0.66 | 0.00 | 91 | 1011.4 |
| 20260508005404 | 8 | 186 | 1.6 | 3.2 | 0.00 | 0.66 | 0.00 | 91 | 1011.5 |
| 20260508004503 | 8 | 174 | 0.0 | 3.2 | 0.00 | 0.66 | 0.00 | 91 | 1011.5 |
| 20260508003603 | 8 | 187 | 1.6 | 3.2 | 0.00 | 0.66 | 0.00 | 91 | 1011.5 |
| 20260508002703 | 8 | 191 | 1.6 | 6.4 | 0.00 | 0.66 | 0.00 | 91 | 1011.3 |
| 20260508002017 | 8 | 139 | 0.0 | 1.6 | 0.00 | 0.66 | 0.00 | 91 | 1011.3 |
| 20260508000903 | 7 | 114 | 0.0 | 1.6 | 0.00 | 0.66 | 0.00 | 91 | 1011.3 |
| 20260508000003 | 8 | 112 | 0.0 | 1.6 | 0.00 | 0.66 | 0.00 | 91 | 1011.3 |
| 20260507235403 | 8 | 111 | 0.0 | 1.6 | 0.00 | 0.66 | 0.00 | 91 | 1011.3 |
| 20260507234503 | 8 | 107 | 0.0 | 1.6 | 0.00 | 0.66 | 0.00 | 92 | 1011.0 |
| 20260507233604 | 8 | 0 | 0.0 | 1.6 | 0.00 | 0.66 | 0.00 | 92 | 1011.2 |
| 20260507232703 | 8 | 0 | 0.0 | 1.6 | 0.00 | 0.66 | 0.00 | 92 | 1011.2 |
| 20260507231803 | 8 | 0 | 0.0 | 1.6 | 0.00 | 0.66 | 0.00 | 92 | 1011.2 |
| 20260507230903 | 8 | 106 | 0.0 | 1.6 | 0.00 | 0.66 | 0.00 | 92 | 1011.1 |
| 20260507230005 | 8 | 106 | 0.0 | 1.6 | 0.00 | 0.66 | 0.00 | 92 | 1011.1 |
| 20260507225403 | 8 | 0 | 0.0 | 0.0 | 0.00 | 0.66 | 0.66 | 92 | 1011.1 |
| 20260507224504 | 8 | 0 | 0.0 | 1.6 | 0.00 | 0.66 | 0.66 | 92 | 1010.9 |
| 20260507223603 | 8 | 0 | 0.0 | 1.6 | 0.00 | 0.66 | 0.66 | 92 | 1011.0 |
| 20260507222703 | 8 | 0 | 0.0 | 1.6 | 0.00 | 0.66 | 0.66 | 92 | 1010.9 |
| 20260507221803 | 8 | 0 | 0.0 | 1.6 | 0.00 | 0.66 | 0.66 | 92 | 1011.0 |
| 20260507220903 | 8 | 106 | 0.0 | 3.2 | 0.00 | 0.66 | 0.66 | 92 | 1010.8 |
| 20260507220217 | 8 | 106 | 0.0 | 3.2 | 0.00 | 0.66 | 0.66 | 92 | 1010.8 |
| 20260507215403 | 8 | 62 | 0.0 | 1.6 | 0.00 | 0.66 | 0.66 | 92 | 1010.9 |
| 20260507214503 | 8 | 62 | 0.0 | 1.6 | 0.00 | 0.66 | 0.66 | 92 | 1010.9 |
| 20260507213603 | 8 | 62 | 0.0 | 1.6 | 0.00 | 0.66 | 0.66 | 92 | 1010.8 |
| 20260507212703 | 8 | 62 | 0.0 | 1.6 | 0.00 | 0.66 | 0.66 | 92 | 1010.8 |
| 20260507211803 | 8 | 62 | 0.0 | 1.6 | 0.00 | 0.66 | 0.66 | 92 | 1010.8 |
| 20260507211117 | 8 | 0 | 0.0 | 1.6 | 0.00 | 0.66 | 0.66 | 92 | 1010.6 |
| 20260507210217 | 8 | 62 | 0.0 | 1.6 | 0.00 | 0.66 | 0.66 | 92 | 1010.5 |
| 20260507205403 | 8 | 62 | 0.0 | 1.6 | 0.00 | 0.66 | 0.66 | 92 | 1010.6 |
| 20260507204503 | 8 | 62 | 0.0 | 1.6 | 0.00 | 0.66 | 0.66 | 92 | 1010.3 |
| 20260507203603 | 8 | 28 | 0.0 | 1.6 | 0.00 | 0.66 | 0.66 | 92 | 1010.2 |
| 20260507202703 | 8 | 21 | 0.0 | 1.6 | 0.00 | 0.66 | 0.66 | 92 | 1010.0 |
| 20260507201803 | 9 | 18 | 0.0 | 1.6 | 0.00 | 0.66 | 0.66 | 91 | 1010.0 |
| 20260507200904 | 9 | 0 | 0.0 | 0.0 | 0.00 | 0.66 | 0.66 | 91 | 1010.0 |
| 20260507200004 | 9 | 0 | 0.0 | 0.0 | 0.00 | 0.66 | 0.66 | 91 | 1009.9 |
| 20260507195403 | 9 | 0 | 0.0 | 0.0 | 0.00 | 0.66 | 0.66 | 91 | 1010.0 |
| 20260507194503 | 9 | 0 | 0.0 | 0.0 | 0.00 | 0.66 | 0.66 | 91 | 1009.8 |
| 20260507193603 | 9 | 0 | 0.0 | 0.0 | 0.00 | 0.66 | 0.66 | 91 | 1009.9 |
| 20260507192703 | 9 | 0 | 0.0 | 0.0 | 0.00 | 0.66 | 0.66 | 91 | 1009.8 |
| 20260507191803 | 9 | 0 | 0.0 | 0.0 | 0.00 | 0.66 | 0.66 | 91 | 1009.8 |
| 20260507190903 | 9 | 0 | 0.0 | 0.0 | 0.03 | 0.66 | 0.66 | 91 | 1009.8 |
| 20260507190004 | 9 | 303 | 0.0 | 1.6 | 0.03 | 0.66 | 0.66 | 90 | 1009.8 |
| 20260507185403 | 9 | 280 | 0.0 | 1.6 | 0.03 | 0.66 | 0.66 | 90 | 1009.8 |
| 20260507184503 | 9 | 287 | 0.0 | 3.2 | 0.05 | 0.66 | 0.66 | 90 | 1009.6 |
| 20260507183603 | 9 | 293 | 1.6 | 3.2 | 0.08 | 0.66 | 0.66 | 90 | 1009.6 |
| 20260507182703 | 10 | 255 | 0.0 | 3.2 | 0.08 | 0.66 | 0.66 | 90 | 1009.6 |
| 20260507181804 | 10 | 213 | 0.0 | 3.2 | 0.08 | 0.66 | 0.66 | 90 | 1009.5 |
| 20260507181118 | 10 | 229 | 0.0 | 3.2 | 0.05 | 0.64 | 0.64 | 89 | 1009.5 |
| 20260507180003 | 10 | 109 | 0.0 | 3.2 | 0.05 | 0.64 | 0.64 | 89 | 1009.5 |
| 20260507175404 | 10 | 172 | 0.0 | 3.2 | 0.05 | 0.64 | 0.64 | 89 | 1009.7 |
| 20260507174503 | 10 | 191 | 0.0 | 3.2 | 0.05 | 0.61 | 0.61 | 88 | 1009.4 |
| 20260507173818 | 10 | 161 | 1.6 | 4.8 | 0.05 | 0.61 | 0.61 | 88 | 1009.3 |
| 20260507172919 | 10 | 163 | 1.6 | 4.8 | 0.03 | 0.58 | 0.58 | 87 | 1009.3 |
| 20260507171804 | 10 | 112 | 1.6 | 4.8 | 0.08 | 0.58 | 0.58 | 88 | 1009.4 |
| 20260507170903 | 10 | 98 | 1.6 | 6.4 | 0.08 | 0.58 | 0.58 | 88 | 1009.2 |
| 20260507170005 | 10 | 132 | 1.6 | 4.8 | 0.08 | 0.58 | 0.58 | 87 | 1009.2 |
| 20260507165403 | 10 | 89 | 1.6 | 9.7 | 0.08 | 0.58 | 0.58 | 87 | 1009.1 |
| 20260507164503 | 11 | 79 | 1.6 | 4.8 | 0.05 | 0.56 | 0.56 | 87 | 1009.0 |
| 20260507163603 | 11 | 80 | 3.2 | 9.7 | 0.05 | 0.56 | 0.56 | 87 | 1009.3 |
| 20260507162703 | 11 | 77 | 3.2 | 9.7 | 0.05 | 0.56 | 0.56 | 85 | 1009.1 |
| 20260507161803 | 11 | 80 | 1.6 | 6.4 | 0.00 | 0.51 | 0.51 | 84 | 1009.0 |
| 20260507160903 | 11 | 78 | 3.2 | 11.3 | 0.00 | 0.51 | 0.51 | 83 | 1009.1 |
| 20260507160005 | 11 | 109 | 3.2 | 9.7 | 0.00 | 0.51 | 0.51 | 83 | 1009.1 |
| 20260507155403 | 11 | 98 | 3.2 | 9.7 | 0.00 | 0.51 | 0.51 | 83 | 1009.0 |
| 20260507154504 | 11 | 89 | 3.2 | 9.7 | 0.00 | 0.51 | 0.51 | 84 | 1008.8 |
| 20260507153819 | 11 | 99 | 3.2 | 12.9 | 0.00 | 0.51 | 0.51 | 84 | 1008.9 |
| 20260507152703 | 11 | 119 | 4.8 | 12.9 | 0.00 | 0.51 | 0.51 | 82 | 1008.8 |
| 20260507151804 | 11 | 130 | 4.8 | 12.9 | 0.00 | 0.51 | 0.51 | 80 | 1008.8 |
| 20260507150903 | 12 | 132 | 4.8 | 17.7 | 0.00 | 0.51 | 0.51 | 75 | 1008.9 |
| 20260507150004 | 12 | 94 | 6.4 | 14.5 | 0.00 | 0.51 | 0.51 | 74 | 1009.0 |
| 20260507145403 | 13 | 103 | 4.8 | 12.9 | 0.00 | 0.51 | 0.51 | 72 | 1008.8 |
| 20260507144503 | 13 | 112 | 4.8 | 20.9 | 0.00 | 0.51 | 0.51 | 75 | 1009.0 |
| 20260507143604 | 12 | 111 | 4.8 | 14.5 | 0.00 | 0.51 | 0.51 | 77 | 1008.9 |
| 20260507142918 | 12 | 114 | 6.4 | 16.1 | 0.00 | 0.51 | 0.51 | 78 | 1009.0 |
| 20260507141803 | 12 | 126 | 6.4 | 17.7 | 0.00 | 0.51 | 0.51 | 81 | 1008.8 |
| 20260507140903 | 12 | 123 | 6.4 | 17.7 | 0.00 | 0.51 | 0.51 | 81 | 1008.7 |
| 20260507140003 | 12 | 121 | 4.8 | 14.5 | 0.00 | 0.51 | 0.51 | 80 | 1008.7 |
| 20260507135618 | 12 | 98 | 4.8 | 12.9 | 0.00 | 0.51 | 0.51 | 81 | 1008.6 |
| 20260507134503 | 12 | 86 | 4.8 | 16.1 | 0.00 | 0.51 | 0.51 | 83 | 1008.7 |
| 20260507133816 | 12 | 80 | 6.4 | 16.1 | 0.00 | 0.51 | 0.51 | 80 | 1008.7 |
| 20260507132704 | 13 | 95 | 6.4 | 20.9 | 0.03 | 0.51 | 0.51 | 74 | 1008.9 |
| 20260507132017 | 15 | 97 | 6.4 | 20.9 | 0.03 | 0.51 | 0.51 | 72 | 1008.8 |
| 20260507130904 | 13 | 127 | 6.4 | 16.1 | 0.03 | 0.51 | 0.51 | 78 | 1008.7 |
| 20260507130004 | 13 | 96 | 4.8 | 16.1 | 0.03 | 0.51 | 0.51 | 80 | 1008.7 |
| 20260507125403 | 12 | 90 | 6.4 | 14.5 | 0.03 | 0.51 | 0.51 | 81 | 1008.8 |
| 20260507124503 | 12 | 115 | 3.2 | 20.9 | 0.03 | 0.51 | 0.51 | 83 | 1008.9 |
| 20260507123818 | 12 | 71 | 4.8 | 20.9 | 0.03 | 0.51 | 0.51 | 79 | 1009.1 |
| 20260507122705 | 12 | 88 | 6.4 | 17.7 | 0.00 | 0.48 | 0.48 | 75 | 1008.8 |
| 20260507121803 | 13 | 99 | 6.4 | 16.1 | 0.00 | 0.48 | 0.48 | 75 | 1009.0 |
| 20260507121118 | 13 | 92 | 4.8 | 16.1 | 0.00 | 0.48 | 0.48 | 76 | 1008.9 |
| 20260507120003 | 13 | 68 | 4.8 | 16.1 | 0.00 | 0.48 | 0.48 | 78 | 1008.9 |
| 20260507115403 | 13 | 65 | 6.4 | 16.1 | 0.00 | 0.48 | 0.48 | 79 | 1008.8 |
| 20260507114503 | 13 | 93 | 4.8 | 14.5 | 0.00 | 0.48 | 0.48 | 81 | 1009.1 |
| 20260507113819 | 12 | 112 | 3.2 | 9.7 | 0.00 | 0.48 | 0.48 | 84 | 1009.1 |
| 20260507112917 | 11 | 93 | 6.4 | 20.9 | 0.00 | 0.48 | 0.48 | 83 | 1009.1 |
| 20260507111804 | 12 | 85 | 4.8 | 20.9 | 0.00 | 0.48 | 0.48 | 77 | 1009.1 |
| 20260507110908 | 13 | 67 | 4.8 | 12.9 | 0.00 | 0.48 | 0.48 | 75 | 1008.9 |
| 20260507110003 | 12 | 105 | 4.8 | 12.9 | 0.00 | 0.48 | 0.48 | 77 | 1008.8 |
| 20260507105618 | 12 | 92 | 4.8 | 14.5 | 0.00 | 0.48 | 0.48 | 78 | 1009.0 |
| 20260507104717 | 12 | 71 | 6.4 | 14.5 | 0.00 | 0.48 | 0.48 | 79 | 1009.1 |
| 20260507103603 | 12 | 97 | 6.4 | 14.5 | 0.00 | 0.48 | 0.48 | 78 | 1009.0 |
| 20260507102703 | 12 | 109 | 4.8 | 14.5 | 0.00 | 0.48 | 0.48 | 80 | 1009.1 |
| 20260507101804 | 12 | 124 | 4.8 | 11.3 | 0.00 | 0.48 | 0.48 | 82 | 1009.0 |
| 20260507100903 | 11 | 112 | 3.2 | 12.9 | 0.00 | 0.48 | 0.48 | 83 | 1009.0 |
| 20260507100003 | 11 | 88 | 4.8 | 12.9 | 0.00 | 0.48 | 0.48 | 84 | 1009.0 |
| 20260507095404 | 11 | 72 | 4.8 | 12.9 | 0.00 | 0.48 | 0.48 | 85 | 1009.1 |
| 20260507094503 | 11 | 80 | 4.8 | 14.5 | 0.00 | 0.48 | 0.48 | 87 | 1009.0 |
| 20260507093603 | 11 | 86 | 6.4 | 16.1 | 0.00 | 0.48 | 0.48 | 87 | 1009.1 |
| 20260507092705 | 11 | 91 | 4.8 | 16.1 | 0.00 | 0.48 | 0.48 | 86 | 1009.0 |
| 20260507091803 | 11 | 73 | 4.8 | 14.5 | 0.00 | 0.48 | 0.48 | 87 | 1008.8 |
| 20260507091117 | 11 | 75 | 4.8 | 14.5 | 0.00 | 0.48 | 0.48 | 84 | 1008.8 |
| 20260507090005 | 11 | 85 | 6.4 | 12.9 | 0.00 | 0.48 | 0.48 | 85 | 1008.6 |
| 20260507085403 | 11 | 80 | 4.8 | 11.3 | 0.00 | 0.48 | 0.48 | 86 | 1008.7 |
| 20260507084505 | 11 | 98 | 4.8 | 11.3 | 0.00 | 0.48 | 0.48 | 88 | 1008.7 |
| 20260507083606 | 11 | 105 | 4.8 | 11.3 | 0.00 | 0.48 | 0.48 | 89 | 1008.7 |
| 20260507082918 | 10 | 89 | 4.8 | 11.3 | 0.00 | 0.48 | 0.48 | 90 | 1008.9 |
| 20260507081808 | 10 | 82 | 4.8 | 12.9 | 0.00 | 0.48 | 0.48 | 91 | 1008.9 |
| 20260507080903 | 10 | 63 | 4.8 | 12.9 | 0.00 | 0.48 | 0.48 | 92 | 1008.8 |
| 20260507080004 | 10 | 85 | 3.2 | 9.7 | 0.00 | 0.48 | 0.48 | 92 | 1008.8 |
| 20260507075403 | 10 | 81 | 3.2 | 9.7 | 0.00 | 0.48 | 0.48 | 93 | 1008.7 |
| 20260507074503 | 10 | 84 | 3.2 | 9.7 | 0.00 | 0.48 | 0.48 | 93 | 1008.8 |
| 20260507073603 | 10 | 87 | 3.2 | 6.4 | 0.00 | 0.48 | 0.48 | 93 | 1009.1 |
| 20260507072703 | 9 | 81 | 3.2 | 6.4 | 0.10 | 0.48 | 0.48 | 93 | 1008.8 |
| 20260507071803 | 8 | 74 | 3.2 | 9.7 | 0.15 | 0.48 | 0.48 | 93 | 1008.8 |
| 20260507070903 | 8 | 91 | 3.2 | 9.7 | 0.15 | 0.48 | 0.48 | 93 | 1008.7 |
| 20260507070006 | 8 | 86 | 3.2 | 11.3 | 0.15 | 0.48 | 0.48 | 93 | 1008.8 |
| 20260507065404 | 8 | 71 | 3.2 | 9.7 | 0.15 | 0.48 | 0.48 | 93 | 1009.0 |